Weather History for Vitoria, Spain

Change the Weather History Date:

Sunday, October 21, 2012

  Actual Average Record
Temperature  
Mean Temperature 54 °F -  
Max Temperature 57 °F 57 °F 82 °F (2014)
Min Temperature 51 °F 40 °F 30 °F (2007)
Degree Days  
Heating Degree Days 11    
Growing Degree Days 4 (Base 50)    
Moisture  
Dew Point 53 °F    
Average Humidity 97    
Maximum Humidity 100    
Minimum Humidity 88    
Precipitation  
Precipitation 0.00 in - - ()
Sea Level Pressure  
Sea Level Pressure 29.91 in    
Wind  
Wind Speed 1 mph ()    
Max Wind Speed 6 mph    
Max Gust Speed -    
Visibility 5.2 miles    
Events Rain    
Averages and records for this station are not official NWS values.
T = Trace of Precipitation, MM = Missing Value Source: Averaged Metar Reports

Daily Weather History Graph

Daily Weather History Graph

Search for Another Location

Airport:

Trip Planner

Search our weather history database for the weather conditions in past years. The results will help you decide how hot, cold, wet, or windy it might be!

Date:

Astronomy

Oct. 21, 2012 Rise Set
Actual Time 8:31 AM CEST 7:18 PM CEST
Civil Twilight 8:02 AM CEST 7:47 PM CEST
Nautical Twilight 7:29 AM CEST 8:20 PM CEST
Astronomical Twilight 6:57 AM CEST 8:52 PM CEST
Moon 2:45 PM CEST (10/21) No Moon Set
Length of Visible Light 11h 44m
Length of Day
10h 46m
Waxing Crescent, 42% of the Moon is Illuminated
Oct 21
Waxing Crescent
Oct 22
First Quarter
Oct 29
Full
Nov 7
Last Quarter
Nov 13
New

Hourly Weather History & Observations

Time (CEST) Temp. Dew Point Humidity Pressure Visibility Wind Dir Wind Speed Gust Speed Precip Events Conditions
12:00 AM 51.8 °F 51.8 °F 100% 29.92 in 6.2 mi NW 2.3 mph - N/A   Mostly Cloudy
12:30 AM 51.8 °F 51.8 °F 100% 29.92 in 6.2 mi NNW 2.3 mph - N/A Rain Light Rain
1:30 AM 51.8 °F 51.8 °F 100% 29.92 in 3.1 mi Calm Calm - N/A Rain Light Rain
2:00 AM 51.8 °F 51.8 °F 100% 29.92 in 3.1 mi Calm Calm - N/A Rain Light Rain
2:30 AM 51.8 °F 51.8 °F 100% 29.89 in 3.1 mi Calm Calm - N/A Rain Light Rain
3:00 AM 51.8 °F 51.8 °F 100% 29.89 in 4.3 mi Calm Calm - N/A Rain Light Rain
3:30 AM 51.8 °F 51.8 °F 100% 29.89 in 6.2 mi Calm Calm - N/A Rain Light Rain
4:00 AM 51.8 °F 51.8 °F 100% 29.89 in 6.2 mi Calm Calm - N/A Rain Light Rain
4:30 AM 51.8 °F 51.8 °F 100% 29.89 in 5.0 mi Calm Calm - N/A   Light Drizzle
5:00 AM 51.8 °F 51.8 °F 100% 29.89 in 4.3 mi Calm Calm - N/A   Light Drizzle
5:30 AM 51.8 °F 51.8 °F 100% 29.89 in 3.1 mi Calm Calm - N/A   Light Drizzle
6:00 AM 51.8 °F 51.8 °F 100% 29.89 in 3.1 mi Calm Calm - N/A   Light Drizzle
7:00 AM 51.8 °F 51.8 °F 100% 29.89 in 3.7 mi Calm Calm - N/A   Light Drizzle
7:30 AM 51.8 °F 51.8 °F 100% 29.86 in 3.1 mi Calm Calm - N/A   Light Drizzle
8:00 AM 51.8 °F 51.8 °F 100% 29.86 in 5.0 mi Calm Calm - N/A   Light Drizzle
8:30 AM 51.8 °F 51.8 °F 100% 29.86 in 4.3 mi Calm Calm - N/A   Light Drizzle
9:00 AM 51.8 °F 51.8 °F 100% 29.86 in 6.2 mi Calm Calm - N/A Rain Light Rain
9:30 AM 51.8 °F 51.8 °F 100% 29.89 in 6.2 mi Calm Calm - N/A   Mostly Cloudy
10:30 AM 53.6 °F 51.8 °F 94% 29.89 in 4.3 mi Calm Calm - N/A Rain Light Rain
11:00 AM 53.6 °F 51.8 °F 94% 29.89 in 4.3 mi Calm Calm - N/A Rain Light Rain
11:30 AM 53.6 °F 51.8 °F 94% 29.89 in 5.0 mi Calm Calm - N/A Rain Light Rain
12:30 PM 55.4 °F 53.6 °F 94% 29.89 in 6.2 mi Calm Calm - N/A   Mostly Cloudy
1:00 PM 55.4 °F 53.6 °F 94% 29.89 in 3.7 mi NNW 3.5 mph - N/A Rain Light Rain
1:30 PM 57.2 °F 53.6 °F 88% 29.89 in 6.2 mi North 3.5 mph - N/A   Mostly Cloudy
2:00 PM 57.2 °F 55.4 °F 94% 29.89 in 3.7 mi NNE 4.6 mph - N/A Rain Light Rain
2:30 PM 57.2 °F 55.4 °F 94% 29.89 in 6.2 mi Variable 2.3 mph - N/A   Mostly Cloudy
3:00 PM 57.2 °F 53.6 °F 88% 29.89 in 6.2 mi North 5.8 mph - N/A   Mostly Cloudy
3:30 PM 57.2 °F 53.6 °F 88% 29.89 in 6.2 mi NNW 4.6 mph - N/A   Mostly Cloudy
4:00 PM 57.2 °F 55.4 °F 94% 29.89 in 6.2 mi NW 3.5 mph - N/A   Mostly Cloudy
4:30 PM 57.2 °F 53.6 °F 88% 29.89 in 6.2 mi NW 3.5 mph - N/A   Mostly Cloudy
5:00 PM 55.4 °F 55.4 °F 100% 29.92 in 3.1 mi WNW 3.5 mph - N/A Rain Light Rain
5:30 PM 57.2 °F 55.4 °F 94% 29.92 in 5.0 mi Variable 2.3 mph - N/A Rain Light Rain
6:00 PM 57.2 °F 55.4 °F 94% 29.92 in 6.2 mi North 3.5 mph - N/A   Mostly Cloudy
6:30 PM 57.2 °F 55.4 °F 94% 29.92 in 6.2 mi North 3.5 mph - N/A   Mostly Cloudy
7:00 PM 55.4 °F 55.4 °F 100% 29.92 in 6.2 mi Variable 1.2 mph - N/A   Mostly Cloudy
7:30 PM 55.4 °F 53.6 °F 94% 29.95 in 6.2 mi Variable 1.2 mph - N/A   Mostly Cloudy
8:00 PM 55.4 °F 53.6 °F 94% 29.95 in 6.2 mi ENE 1.2 mph - N/A   Mostly Cloudy
8:30 PM 55.4 °F 53.6 °F 94% 29.95 in 6.2 mi Calm Calm - N/A   Mostly Cloudy
9:00 PM 53.6 °F 53.6 °F 100% 29.98 in 6.2 mi Calm Calm - N/A   Mostly Cloudy
9:30 PM 53.6 °F 53.6 °F 100% 29.98 in 6.2 mi Calm Calm - N/A   Mostly Cloudy
10:00 PM 53.6 °F 53.6 °F 100% 29.98 in 6.2 mi West 1.2 mph - N/A   Mostly Cloudy
10:30 PM 53.6 °F 53.6 °F 100% 29.98 in 6.2 mi Calm Calm - N/A   Mostly Cloudy
11:00 PM 53.6 °F 53.6 °F 100% 29.98 in 6.2 mi Calm Calm - N/A   Mostly Cloudy
11:30 PM 53.6 °F 53.6 °F 100% 30.01 in 6.2 mi Calm Calm - N/A   Mostly Cloudy